Home > Time Zones > World Clock > Weather > U.S.A. > Reno > Past weeks

Flag for U.S.A. Weather past 2 weeks in Reno, Nevada, U.S.A.

Now
78 °F

Passing clouds.


Feels Like: 77 °F
Forecast: 52 / 88 °F
Wind: 3 mph from Northwest

Location: Reno Tahoe International Airport

Current Time: Aug 31, 2015 at 1:08:42 PM

Latest Report: Aug 31, 2015 at 11:55 AM


Visibility: 10 mi

Pressure: 29.91 "Hg (25.57 "Hg at 1372m altitude)

Humidity: 15%

Dew point: 27 °F

Location of RenoLocation

Historic Weather in Reno — Graph

°F

Reno temperature yesterday

Maximum temperature yesterday: 84 °F (at 2:55 PM)
Minimum temperature yesterday: 57 °F (at 5:55 AM)
Average temperature yesterday: 71 °F

Past Weeks' High & Low Weather Summary

 TemperatureHumidityPressure
High97 °F (Aug 16, 4:55 PM)64% (Aug 30, 5:55 AM)30.12 "Hg (Aug 30, 5:55 AM)
Low53 °F (Aug 31, 5:55 AM)4% (Aug 16, 4:55 PM)29.72 "Hg (Aug 21, 3:55 PM)
Average77 °F23%29.90 "Hg
* Reported Aug 16 11:55 AM — Aug 31 11:55 AM, Reno, Weather by CustomWeather, © 2015

Note: Actual official high and low records may vary slightly from our data, if they occured in-between our weather recording intervals... More about our weather records

Advertising

Reno weather history for previous 24 hours

 ConditionsComfort  
Time TempWeatherWind HumidityBarometerVisibility
11:55 AM
Mon, Aug 31
78 °FPassing clouds.3 mph15%29.91 "Hg10 mi
10:55 AM73 °FSunny.3 mph19%29.94 "Hg10 mi
9:55 AM66 °FPassing clouds.3 mph23%29.96 "Hg10 mi
8:55 AM61 °FPassing clouds.No wind29%29.97 "Hg10 mi
7:55 AM56 °FSunny.5 mph33%29.98 "Hg10 mi
6:55 AM53 °FPassing clouds.No wind37%29.98 "Hg10 mi
5:55 AM53 °FClear.3 mph34%29.97 "Hg10 mi
4:55 AM55 °FClear.3 mph31%29.95 "Hg10 mi
3:55 AM56 °FClear.5 mph34%29.95 "Hg10 mi
2:55 AM55 °FClear.No wind37%29.94 "Hg10 mi
1:55 AM60 °FClear.5 mph30%29.95 "Hg10 mi
12:55 AM62 °FPassing clouds.6 mph27%29.94 "Hg10 mi
11:55 PM
Sun, Aug 30
62 °FPassing clouds.3 mph26%29.93 "Hg10 mi
10:55 PM66 °FPassing clouds.5 mph24%29.92 "Hg10 mi
9:55 PM71 °FPassing clouds.No wind19%29.92 "Hg10 mi
8:55 PM72 °FPassing clouds.12 mph17%29.90 "Hg10 mi
7:55 PM75 °FScattered clouds.12 mph15%29.88 "Hg10 mi
6:55 PM78 °FScattered clouds.15 mph13%29.88 "Hg10 mi
5:55 PM81 °FScattered clouds.17 mph12%29.87 "Hg10 mi
4:55 PM83 °FScattered clouds.20 mph12%29.86 "Hg10 mi
3:55 PM84 °FBroken clouds.18 mph12%29.86 "Hg10 mi
2:55 PM84 °FBroken clouds.21 mph16%29.87 "Hg10 mi
1:55 PM83 °FBroken clouds.14 mph17%29.88 "Hg10 mi
Weather by CustomWeather, © 2015

See weather overviewHow to use our weather pages